Location: Bryzozowice
(50.3667°N, 18.9667°E)
Time: 00:48:42
(UTC+00:00)

Cosmos 1340 Rocket - Pass Details

Date: 24 January 2020
Orbit: 530 x 558 km, 81.2° (Epoch: 28 February)

Event Time Altitude Azimuth Distance (km) Brightness Sun altitude
Rises 16:08:27 0° 347° (NNW) 2,700 6.3 -7.4°
Reaches altitude 10° 16:10:36 10° 346° (NNW) 1,807 5.4 -7.7°
Maximum altitude 16:14:35 82° 259° (W) 553 2.9 -8.3°
Drops below altitude 10° 16:18:34 10° 172° (S) 1,808 5.6 -8.9°
Sets 16:20:43 0° 172° (S) 2,700 6.5 -9.3°
